User: anonymous   Login
Location: Camp Creek
(33.9000°N, 111.8167°W)
Time: 08:02:22
(UTC-07:00)
Language:

DELTA 2 R/B (1) - Orbit

View from above orbital plane
View from above orbital plane
View from above satellite
View from above satellite

Ground track
Ground track

The orbit data is extracted from the following two-line orbital elements,

1 27665U 03005C   17112.89371656 +.00000046 +00000-0 +51852-4 0  9996
2 27665 039.5771 031.8062 0009785 265.8036 152.3054 14.28440883742936
Epoch (UTC): 22 April 2017 21:26:57
Eccentricity: 0.0009785
inclination: 39.5771°
perigee height: 790 km
apogee height: 804 km
right ascension of ascending node: 31.8062°
argument of perigee: 265.8036°
revolutions per day: 14.28440883
mean anomaly at epoch: 152.3054°
orbit number at epoch: 74293

The dashed part of the orbit path shows where the satellite is in the earth's shadow,  

DLR